TimeCDT,TemperatureF,Dew PointF,Humidity,Sea Level PressureIn,VisibilityMPH,Wind Direction,Wind SpeedMPH,Gust SpeedMPH,PrecipitationIn,Events,Conditions,WindDirDegrees,DateUTC
12:55 AM,45.0,41.7,88,29.82,10.0,NW,13.8,-,N/A,,Overcast,320,2012-10-24 05:55:00
1:03 AM,44.6,41.0,87,29.83,10.0,WNW,10.4,-,N/A,,Overcast,300,2012-10-24 06:03:00
1:55 AM,43.0,39.9,89,29.87,10.0,WNW,9.2,18.4,N/A,,Overcast,290,2012-10-24 06:55:00
2:17 AM,41.0,37.4,87,29.88,10.0,NW,15.0,-,N/A,,Overcast,310,2012-10-24 07:17:00
2:55 AM,41.5,37.9,87,29.87,10.0,NW,8.1,-,N/A,,Overcast,320,2012-10-24 07:55:00
3:55 AM,41.0,37.8,88,29.89,10.0,NW,5.8,-,N/A,,Overcast,320,2012-10-24 08:55:00
4:44 AM,41.0,37.4,87,29.88,10.0,NW,8.1,-,N/A,,Overcast,320,2012-10-24 09:44:00
4:55 AM,41.0,37.0,86,29.89,10.0,NW,9.2,-,N/A,,Overcast,320,2012-10-24 09:55:00
5:55 AM,40.8,37.6,88,29.91,10.0,NW,5.8,-,N/A,,Overcast,320,2012-10-24 10:55:00
6:30 AM,41.0,37.4,87,29.94,10.0,WNW,3.5,-,N/A,,Overcast,290,2012-10-24 11:30:00
6:55 AM,40.6,36.5,85,29.95,10.0,WNW,8.1,-,N/A,,Overcast,300,2012-10-24 11:55:00
6:58 AM,41.0,35.6,81,29.93,10.0,NW,5.8,-,N/A,,Overcast,310,2012-10-24 11:58:00
7:55 AM,39.7,35.6,85,29.96,10.0,WNW,10.4,-,N/A,,Overcast,300,2012-10-24 12:55:00
8:55 AM,39.0,34.7,84,29.98,10.0,NW,10.4,-,N/A,,Overcast,310,2012-10-24 13:55:00
9:55 AM,39.2,34.2,82,29.99,10.0,NW,10.4,-,N/A,,Overcast,310,2012-10-24 14:55:00
10:55 AM,39.7,33.4,78,29.99,10.0,NW,9.2,-,N/A,,Overcast,310,2012-10-24 15:55:00
11:55 AM,39.6,32.5,76,30.00,10.0,NW,13.8,-,N/A,,Overcast,320,2012-10-24 16:55:00
12:55 PM,39.0,32.2,76,29.99,10.0,NW,11.5,-,N/A,,Overcast,320,2012-10-24 17:55:00
1:55 PM,39.2,32.9,78,29.99,10.0,NW,10.4,-,N/A,,Overcast,320,2012-10-24 18:55:00
2:55 PM,39.0,31.5,74,30.00,10.0,NW,9.2,-,N/A,,Overcast,320,2012-10-24 19:55:00
3:55 PM,39.0,31.6,75,30.00,10.0,NW,8.1,-,N/A,,Mostly Cloudy,320,2012-10-24 20:55:00
4:55 PM,38.8,31.1,74,30.01,10.0,NW,9.2,-,N/A,,Overcast,310,2012-10-24 21:55:00
5:55 PM,37.6,30.7,76,30.02,10.0,NW,11.5,-,N/A,,Overcast,320,2012-10-24 22:55:00
6:55 PM,36.7,29.8,76,30.01,10.0,NNW,12.7,-,N/A,,Overcast,330,2012-10-24 23:55:00
7:25 PM,35.6,28.4,75,30.01,10.0,NNW,9.2,-,N/A,,Scattered Clouds,330,2012-10-25 00:25:00
7:55 PM,35.8,28.9,76,30.01,10.0,NNW,10.4,-,N/A,,Partly Cloudy,330,2012-10-25 00:55:00
8:55 PM,35.4,27.3,72,30.04,10.0,NNW,12.7,21.9,N/A,,Partly Cloudy,330,2012-10-25 01:55:00
9:55 PM,34.5,26.8,73,30.04,10.0,NNW,12.7,20.7,N/A,,Clear,330,2012-10-25 02:55:00
10:55 PM,33.4,26.6,76,30.04,10.0,NNW,8.1,-,N/A,,Clear,330,2012-10-25 03:55:00
11:55 PM,32.4,26.6,79,30.05,10.0,NW,5.8,-,N/A,,Clear,310,2012-10-25 04:55:00